Tracking 19709 objects as of 17-Jun-2019
HD Live streaming from Space Station
objects crossing your sky now

SCOUT B DEB

Track SCOUT B DEB now!
10-day predictions


NORAD ID: 28797
Int'l Code: 1965-063G
Perigee: 1,163.8 km
Apogee: 2,251.6 km
Inclination: 69.2 °
Period: 120.4 minutes
Semi major axis: 8078 km
RCS: 0.0092 m2 (small)
Launch date: August 10, 1965
Source: United States (US)
Launch site: WALLOPS ISLAND (WLPIS)

Note: This is SATELLITE DEBRIS
aabbcc
Your satellite tracking list
Your tracking list is empty




NASA's NSSDC Master Catalog

Two Line Element Set (TLE):
1 28797U 65063G   17214.11551021 -.00001628  00000-0 -10901-1 0  9995
2 28797  69.2098  13.4396 0673251  16.6892  90.4398 11.95610729551994
Source of the keplerian elements: AFSPC